| time (UTC) | temp F | wind direction | speed MPH | gust MPH | rain 1hr in | rain 24hr in | rain mn in | humidity % | barometer mb |
| 20260905110206 | 75 | 340 | 0.0 | 5.0 | 0.00 | 0.00 | 0.00 | 59 | 1019.4 |
| 20260905100206 | 76 | 204 | 0.0 | 5.0 | 0.00 | 0.00 | 0.00 | 57 | 1019.4 |
| 20260905090208 | 74 | 296 | 0.0 | 5.0 | 0.00 | 0.00 | 0.00 | 62 | 1018.9 |
| 20260905080205 | 73 | 314 | 1.0 | 6.0 | 0.00 | 0.00 | 0.00 | 65 | 1018.5 |
| 20260905070206 | 71 | 193 | 0.0 | 2.0 | 0.00 | 0.00 | 0.00 | 68 | 1017.7 |
| 20260905060206 | 71 | 256 | 0.0 | 0.0 | 0.00 | 0.00 | 0.00 | 64 | 1016.8 |
| 20260905050206 | 71 | 266 | 0.0 | 4.0 | 0.00 | 0.00 | 0.00 | 62 | 1016.3 |
| 20260905040209 | 71 | 204 | 0.0 | 4.0 | 0.00 | 0.00 | 0.00 | 62 | 1015.7 |
| 20260905030220 | 70 | 304 | 0.0 | 1.0 | 0.00 | 0.00 | 0.00 | 61 | 1015.4 |
| 20260905020209 | 71 | 305 | 1.0 | 6.0 | 0.00 | 0.00 | 0.00 | 57 | 1015.1 |
| 20260905010215 | 72 | 344 | 0.0 | 2.0 | 0.00 | 0.00 | 0.00 | 53 | 1014.5 |
| 20260905000211 | 70 | 257 | 0.0 | 0.0 | 0.00 | 0.00 | 0.00 | 62 | 1014.0 |
| 20260904230207 | 74 | 256 | 0.0 | 0.0 | 0.00 | 0.00 | 0.00 | 56 | 1013.5 |
| 20260904220207 | 75 | 340 | 0.0 | 0.0 | 0.00 | 0.00 | 0.00 | 54 | 1013.2 |
| 20260904200207 | 76 | 316 | 0.0 | 0.0 | 0.00 | 0.00 | 0.00 | 54 | 1013.0 |
| 20260904190206 | 80 | 316 | 0.0 | 1.0 | 0.00 | 0.00 | 0.00 | 47 | 1013.1 |
| 20260904180208 | 84 | 297 | 1.0 | 13.0 | 0.00 | 0.00 | 0.00 | 38 | 1012.5 |
| 20260904170228 | 86 | 269 | 2.0 | 12.0 | 0.00 | 0.00 | 0.00 | 35 | 1012.3 |
| 20260904160207 | 87 | 324 | 3.0 | 12.0 | 0.00 | 0.00 | 0.00 | 33 | 1012.1 |
| 20260904150206 | 87 | 300 | 3.0 | 11.0 | 0.00 | 0.00 | 0.00 | 32 | 1012.2 |
| 20260904140207 | 89 | 211 | 0.0 | 10.0 | 0.00 | 0.00 | 0.00 | 32 | 1012.8 |